| time (UTC) | temp F | wind direction | speed knots | gust knots | rain 1hr in | rain 24hr in | rain mn in | humidity % | barometer mb |
| 20260906141803 | 71 | 311 | 0.0 | 0.0 | 0.00 | 0.00 | 0.00 | 85 | 1018.3 |
| 20260906141258 | 71 | 307 | 0.0 | 0.9 | 0.00 | 0.00 | 0.00 | 84 | 1018.2 |
| 20260906140756 | 70 | 334 | 0.0 | 0.0 | 0.00 | 0.00 | 0.00 | 83 | 1018.4 |
| 20260906140251 | 70 | 305 | 0.0 | 1.7 | 0.00 | 0.00 | 0.00 | 84 | 1018.2 |
| 20260906135748 | 70 | 327 | 0.0 | 1.7 | 0.00 | 0.00 | 0.00 | 84 | 1018.0 |
| 20260906135238 | 69 | 304 | 0.0 | 1.7 | 0.00 | 0.00 | 0.00 | 87 | 1017.9 |
| 20260906134733 | 69 | 345 | 0.0 | 0.9 | 0.00 | 0.00 | 0.00 | 86 | 1018.0 |
| 20260906134228 | 69 | 108 | 0.9 | 2.6 | 0.00 | 0.00 | 0.00 | 85 | 1018.0 |
| 20260906133724 | 69 | 305 | 0.9 | 2.6 | 0.00 | 0.00 | 0.00 | 85 | 1018.2 |
| 20260906133214 | 68 | 284 | 0.0 | 0.9 | 0.00 | 0.00 | 0.00 | 85 | 1018.2 |
| 20260906132709 | 67 | 259 | 0.9 | 1.7 | 0.00 | 0.00 | 0.00 | 86 | 1017.9 |
| 20260906132205 | 67 | 302 | 0.0 | 0.0 | 0.00 | 0.00 | 0.00 | 88 | 1017.9 |
| 20260906131700 | 67 | 331 | 0.0 | 0.9 | 0.00 | 0.00 | 0.00 | 87 | 1018.1 |
| 20260906131154 | 67 | 301 | 0.0 | 2.6 | 0.00 | 0.00 | 0.00 | 89 | 1018.0 |
| 20260906130649 | 67 | 328 | 0.0 | 0.0 | 0.00 | 0.00 | 0.00 | 90 | 1018.0 |
| 20260906130145 | 66 | 335 | 0.0 | 0.9 | 0.00 | 0.00 | 0.00 | 90 | 1017.9 |
| 20260906125637 | 66 | 294 | 0.0 | 0.9 | 0.00 | 0.00 | 0.00 | 91 | 1018.0 |
| 20260906125136 | 66 | 324 | 0.0 | 0.0 | 0.00 | 0.00 | 0.00 | 92 | 1017.7 |
| 20260906124631 | 66 | 306 | 0.0 | 0.0 | 0.00 | 0.00 | 0.00 | 93 | 1017.9 |
| 20260906124127 | 65 | 308 | 0.0 | 0.0 | 0.00 | 0.00 | 0.00 | 93 | 1017.9 |
| 20260906123626 | 65 | 314 | 0.0 | 0.0 | 0.00 | 0.00 | 0.00 | 93 | 1017.7 |
| 20260906123120 | 65 | 315 | 0.0 | 0.0 | 0.00 | 0.00 | 0.00 | 94 | 1017.7 |
| 20260906122614 | 65 | 319 | 0.0 | 0.0 | 0.00 | 0.00 | 0.00 | 94 | 1017.7 |
| 20260906122110 | 65 | 299 | 0.0 | 0.0 | 0.00 | 0.00 | 0.00 | 95 | 1017.6 |
| 20260906121606 | 65 | 320 | 0.0 | 0.0 | 0.00 | 0.00 | 0.00 | 94 | 1017.4 |
| 20260906121102 | 65 | 315 | 0.0 | 0.0 | 0.00 | 0.00 | 0.00 | 95 | 1017.5 |
| 20260906120557 | 64 | 315 | 0.0 | 0.0 | 0.00 | 0.00 | 0.00 | 94 | 1017.3 |
| 20260906120055 | 64 | 305 | 0.0 | 0.0 | 0.00 | 0.00 | 0.00 | 93 | 1017.2 |
| 20260906115554 | 64 | 310 | 0.0 | 0.0 | 0.00 | 0.00 | 0.00 | 94 | 1017.3 |
| 20260906115050 | 64 | 308 | 0.0 | 0.0 | 0.00 | 0.00 | 0.00 | 95 | 1017.3 |
| 20260906114544 | 64 | 308 | 0.0 | 0.0 | 0.00 | 0.00 | 0.00 | 94 | 1016.8 |
| 20260906114040 | 64 | 302 | 0.0 | 0.0 | 0.00 | 0.00 | 0.00 | 94 | 1017.0 |
| 20260906113538 | 65 | 299 | 0.0 | 0.0 | 0.00 | 0.00 | 0.00 | 94 | 1017.1 |
| 20260906113034 | 65 | 306 | 0.0 | 0.0 | 0.00 | 0.00 | 0.00 | 93 | 1016.7 |
| 20260906112528 | 65 | 300 | 0.0 | 0.0 | 0.00 | 0.00 | 0.00 | 93 | 1016.7 |
| 20260906112025 | 65 | 302 | 0.0 | 0.0 | 0.00 | 0.00 | 0.00 | 93 | 1016.6 |
| 20260906111519 | 65 | 312 | 0.0 | 0.9 | 0.00 | 0.00 | 0.00 | 94 | 1016.6 |
| 20260906111014 | 65 | 301 | 0.0 | 0.0 | 0.00 | 0.00 | 0.00 | 94 | 1016.5 |
| 20260906110508 | 65 | 309 | 0.0 | 0.0 | 0.00 | 0.00 | 0.00 | 95 | 1016.5 |
| 20260906110007 | 65 | 306 | 0.0 | 0.0 | 0.00 | 0.00 | 0.00 | 94 | 1016.3 |
| 20260906105503 | 65 | 263 | 0.9 | 0.9 | 0.00 | 0.00 | 0.00 | 94 | 1016.2 |
| 20260906104959 | 65 | 265 | 0.0 | 0.0 | 0.00 | 0.00 | 0.00 | 95 | 1016.2 |
| 20260906104457 | 65 | 305 | 0.0 | 0.0 | 0.00 | 0.00 | 0.00 | 96 | 1016.2 |
| 20260906103956 | 65 | 305 | 0.0 | 0.0 | 0.00 | 0.00 | 0.00 | 96 | 1016.3 |
| 20260906103455 | 65 | 305 | 0.0 | 0.0 | 0.00 | 0.00 | 0.00 | 96 | 1016.1 |
| 20260906102950 | 66 | 306 | 0.0 | 0.0 | 0.00 | 0.00 | 0.00 | 97 | 1016.3 |
| 20260906102444 | 66 | 305 | 0.0 | 0.0 | 0.00 | 0.00 | 0.00 | 96 | 1016.2 |
| 20260906101939 | 66 | 305 | 0.0 | 0.0 | 0.00 | 0.00 | 0.00 | 96 | 1016.2 |
| 20260906101434 | 66 | 294 | 0.0 | 0.0 | 0.00 | 0.00 | 0.00 | 96 | 1016.3 |
| 20260906100930 | 66 | 306 | 0.0 | 0.0 | 0.00 | 0.00 | 0.00 | 97 | 1016.2 |
| 20260906100429 | 66 | 280 | 0.0 | 0.0 | 0.00 | 0.00 | 0.00 | 97 | 1016.1 |
| 20260906095924 | 66 | 310 | 0.0 | 0.0 | 0.00 | 0.00 | 0.00 | 97 | 1016.1 |
| 20260906095420 | 66 | 311 | 0.0 | 0.0 | 0.00 | 0.00 | 0.00 | 98 | 1016.3 |
| 20260906094914 | 66 | 311 | 0.0 | 0.0 | 0.00 | 0.00 | 0.00 | 97 | 1015.9 |
| 20260906094408 | 66 | 311 | 0.0 | 0.0 | 0.00 | 0.00 | 0.00 | 97 | 1015.9 |
| 20260906093904 | 66 | 311 | 0.0 | 0.0 | 0.00 | 0.00 | 0.00 | 97 | 1015.9 |
| 20260906093401 | 66 | 312 | 0.0 | 0.0 | 0.00 | 0.00 | 0.00 | 97 | 1015.9 |
| 20260906092855 | 66 | 312 | 0.0 | 0.0 | 0.00 | 0.00 | 0.00 | 97 | 1015.6 |
| 20260906092355 | 66 | 313 | 0.0 | 0.0 | 0.00 | 0.00 | 0.00 | 97 | 1015.7 |
| 20260906091850 | 67 | 306 | 0.0 | 0.0 | 0.00 | 0.00 | 0.00 | 97 | 1015.7 |
| 20260906091347 | 67 | 306 | 0.0 | 0.0 | 0.00 | 0.00 | 0.00 | 97 | 1015.7 |
| 20260906090843 | 67 | 306 | 0.0 | 0.0 | 0.00 | 0.00 | 0.00 | 97 | 1015.8 |
| 20260906090342 | 67 | 306 | 0.0 | 0.0 | 0.00 | 0.00 | 0.00 | 97 | 1015.7 |
| 20260906085836 | 68 | 300 | 0.0 | 0.0 | 0.00 | 0.00 | 0.00 | 98 | 1015.8 |
| 20260906085335 | 68 | 296 | 0.0 | 0.0 | 0.00 | 0.00 | 0.00 | 98 | 1015.7 |
| 20260906084830 | 68 | 296 | 0.0 | 0.0 | 0.00 | 0.00 | 0.00 | 98 | 1016.1 |
| 20260906084330 | 68 | 278 | 0.0 | 0.9 | 0.00 | 0.00 | 0.00 | 97 | 1015.5 |
| 20260906083824 | 68 | 307 | 0.0 | 0.0 | 0.00 | 0.00 | 0.00 | 98 | 1015.5 |
| 20260906083320 | 68 | 307 | 0.0 | 0.0 | 0.00 | 0.00 | 0.00 | 97 | 1015.6 |
| 20260906082815 | 68 | 307 | 0.0 | 0.0 | 0.00 | 0.00 | 0.00 | 97 | 1015.6 |
| 20260906082310 | 69 | 307 | 0.0 | 0.0 | 0.00 | 0.00 | 0.00 | 98 | 1015.6 |
| 20260906081806 | 69 | 307 | 0.0 | 0.0 | 0.00 | 0.00 | 0.00 | 98 | 1015.7 |
| 20260906081302 | 69 | 307 | 0.0 | 0.0 | 0.00 | 0.00 | 0.00 | 98 | 1015.7 |
| 20260906080758 | 69 | 307 | 0.0 | 0.0 | 0.00 | 0.00 | 0.00 | 98 | 1015.6 |
| 20260906080253 | 69 | 307 | 0.0 | 0.0 | 0.00 | 0.00 | 0.00 | 99 | 1015.6 |
| 20260906075747 | 69 | 307 | 0.0 | 0.0 | 0.00 | 0.00 | 0.00 | 99 | 1015.5 |
| 20260906075242 | 69 | 301 | 0.0 | 0.0 | 0.00 | 0.00 | 0.00 | 99 | 1015.7 |
| 20260906074737 | 69 | 300 | 0.0 | 0.0 | 0.00 | 0.00 | 0.00 | 99 | 1015.7 |
| 20260906074236 | 69 | 304 | 0.0 | 0.0 | 0.00 | 0.00 | 0.00 | 99 | 1015.5 |
| 20260906073736 | 70 | 292 | 0.0 | 0.0 | 0.00 | 0.00 | 0.00 | 99 | 1015.7 |
| 20260906073231 | 70 | 326 | 0.0 | 0.0 | 0.00 | 0.00 | 0.00 | 99 | 1015.6 |
| 20260906072727 | 70 | 326 | 0.0 | 0.0 | 0.00 | 0.00 | 0.00 | 99 | 1015.7 |
| 20260906072223 | 70 | 326 | 0.0 | 0.0 | 0.00 | 0.00 | 0.00 | 99 | 1015.7 |
| 20260906071718 | 70 | 326 | 0.0 | 0.0 | 0.00 | 0.00 | 0.00 | 99 | 1016.0 |
| 20260906071218 | 70 | 326 | 0.0 | 0.0 | 0.00 | 0.00 | 0.00 | 99 | 1015.6 |
| 20260906070715 | 70 | 326 | 0.0 | 0.0 | 0.00 | 0.00 | 0.00 | 99 | 1015.8 |
| 20260906070210 | 70 | 326 | 0.0 | 0.0 | 0.00 | 0.00 | 0.00 | 99 | 1015.8 |
| 20260906065709 | 70 | 327 | 0.0 | 0.0 | 0.00 | 0.00 | 0.00 | 99 | 1015.8 |
| 20260906065205 | 70 | 327 | 0.0 | 0.0 | 0.00 | 0.00 | 0.00 | 99 | 1015.9 |
| 20260906064701 | 70 | 327 | 0.0 | 0.0 | 0.00 | 0.00 | 0.00 | 99 | 1015.6 |
| 20260906064155 | 70 | 327 | 0.0 | 0.0 | 0.00 | 0.00 | 0.00 | 99 | 1015.8 |
| 20260906063650 | 70 | 327 | 0.0 | 0.0 | 0.00 | 0.00 | 0.00 | 99 | 1015.6 |
| 20260906063146 | 70 | 327 | 0.0 | 0.0 | 0.00 | 0.00 | 0.00 | 99 | 1015.7 |
| 20260906062642 | 70 | 327 | 0.0 | 0.0 | 0.00 | 0.00 | 0.00 | 99 | 1015.7 |
| 20260906062140 | 70 | 327 | 0.0 | 0.0 | 0.00 | 0.00 | 0.00 | 99 | 1015.8 |
| 20260906061637 | 70 | 328 | 0.0 | 0.0 | 0.00 | 0.00 | 0.00 | 99 | 1015.7 |
| 20260906061136 | 70 | 328 | 0.0 | 0.0 | 0.00 | 0.00 | 0.00 | 99 | 1015.8 |
| 20260906060633 | 70 | 328 | 0.0 | 0.0 | 0.00 | 0.00 | 0.00 | 99 | 1015.8 |
| 20260906060130 | 70 | 328 | 0.0 | 0.0 | 0.00 | 0.00 | 0.00 | 99 | 1015.7 |
| 20260906055626 | 70 | 328 | 0.0 | 0.0 | 0.00 | 0.00 | 0.00 | 99 | 1015.7 |
| 20260906055121 | 70 | 328 | 0.0 | 0.0 | 0.00 | 0.00 | 0.00 | 99 | 1015.7 |
| 20260906054616 | 70 | 328 | 0.0 | 0.0 | 0.00 | 0.00 | 0.00 | 99 | 1015.6 |
| 20260906054111 | 70 | 328 | 0.0 | 0.0 | 0.00 | 0.00 | 0.00 | 99 | 1015.6 |
| 20260906053608 | 70 | 328 | 0.0 | 0.0 | 0.00 | 0.00 | 0.00 | 99 | 1015.5 |
| 20260906053103 | 70 | 328 | 0.0 | 0.0 | 0.00 | 0.00 | 0.00 | 99 | 1015.5 |
| 20260906052558 | 70 | 328 | 0.0 | 0.0 | 0.00 | 0.00 | 0.00 | 99 | 1015.3 |
| 20260906052055 | 70 | 328 | 0.0 | 0.0 | 0.00 | 0.00 | 0.00 | 99 | 1015.3 |
| 20260906051550 | 70 | 328 | 0.0 | 0.0 | 0.00 | 0.00 | 0.00 | 99 | 1015.4 |
| 20260906051046 | 71 | 328 | 0.0 | 0.0 | 0.00 | 0.00 | 0.00 | 99 | 1015.6 |
| 20260906050546 | 71 | 328 | 0.0 | 0.0 | 0.00 | 0.00 | 0.00 | 99 | 1015.4 |
| 20260906050041 | 71 | 328 | 0.0 | 0.0 | 0.00 | 0.00 | 0.00 | 99 | 1015.5 |
| 20260906045539 | 71 | 328 | 0.0 | 0.0 | 0.00 | 0.00 | 0.00 | 99 | 1015.2 |
| 20260906045035 | 71 | 328 | 0.0 | 0.0 | 0.00 | 0.00 | 0.00 | 99 | 1015.3 |
| 20260906044530 | 71 | 328 | 0.0 | 0.0 | 0.00 | 0.00 | 0.00 | 99 | 1015.3 |
| 20260906044026 | 71 | 328 | 0.0 | 0.0 | 0.00 | 0.00 | 0.00 | 99 | 1015.3 |
| 20260906043521 | 71 | 328 | 0.0 | 0.0 | 0.00 | 0.00 | 0.00 | 99 | 1015.1 |
| 20260906043018 | 71 | 329 | 0.0 | 0.0 | 0.00 | 0.00 | 0.00 | 99 | 1015.5 |
| 20260906042516 | 71 | 328 | 0.0 | 0.0 | 0.00 | 0.00 | 0.00 | 99 | 1015.2 |
| 20260906042011 | 71 | 328 | 0.0 | 0.0 | 0.00 | 0.00 | 0.00 | 99 | 1015.3 |
| 20260906041507 | 71 | 328 | 0.0 | 0.0 | 0.00 | 0.00 | 0.00 | 99 | 1015.1 |
| 20260906041007 | 71 | 328 | 0.0 | 0.0 | 0.00 | 0.00 | 0.00 | 99 | 1015.1 |
| 20260906040502 | 71 | 328 | 0.0 | 0.0 | 0.00 | 0.00 | 0.00 | 99 | 1015.2 |
| 20260906035957 | 71 | 325 | 0.0 | 0.0 | 0.00 | 1.19 | 1.19 | 99 | 1015.2 |
| 20260906035453 | 71 | 325 | 0.0 | 0.0 | 0.00 | 1.19 | 1.19 | 99 | 1015.0 |
| 20260906034949 | 71 | 325 | 0.0 | 0.0 | 0.00 | 1.19 | 1.19 | 99 | 1015.4 |
| 20260906034449 | 71 | 325 | 0.0 | 0.0 | 0.00 | 1.19 | 1.19 | 99 | 1015.2 |
| 20260906033944 | 71 | 325 | 0.0 | 0.0 | 0.00 | 1.19 | 1.19 | 99 | 1015.1 |
| 20260906033444 | 71 | 325 | 0.0 | 0.0 | 0.00 | 1.19 | 1.19 | 99 | 1015.1 |
| 20260906032940 | 71 | 325 | 0.0 | 0.0 | 0.00 | 1.19 | 1.19 | 99 | 1015.2 |
| 20260906032437 | 71 | 325 | 0.0 | 0.9 | 0.00 | 1.19 | 1.19 | 99 | 1015.0 |
| 20260906031936 | 71 | 319 | 0.0 | 0.0 | 0.00 | 1.19 | 1.19 | 99 | 1015.2 |
| 20260906031431 | 72 | 319 | 0.0 | 0.0 | 0.00 | 1.19 | 1.19 | 99 | 1015.1 |
| 20260906030922 | 72 | 319 | 0.0 | 0.0 | 0.00 | 1.19 | 1.19 | 99 | 1015.2 |
| 20260906030416 | 72 | 319 | 0.0 | 0.0 | 0.00 | 1.19 | 1.19 | 99 | 1015.2 |
| 20260906025910 | 72 | 318 | 0.0 | 0.0 | 0.00 | 1.19 | 1.19 | 99 | 1015.2 |
| 20260906025405 | 72 | 318 | 0.0 | 0.0 | 0.00 | 1.19 | 1.19 | 99 | 1015.4 |
| 20260906024903 | 72 | 318 | 0.0 | 0.0 | 0.00 | 1.19 | 1.19 | 99 | 1015.3 |
| 20260906024402 | 73 | 318 | 0.0 | 0.0 | 0.00 | 1.19 | 1.19 | 99 | 1015.2 |
| 20260906023857 | 73 | 314 | 0.0 | 0.0 | 0.00 | 1.19 | 1.19 | 99 | 1015.4 |
| 20260906023354 | 73 | 327 | 0.0 | 0.0 | 0.00 | 1.19 | 1.19 | 99 | 1015.5 |
| 20260906022849 | 73 | 305 | 0.0 | 0.0 | 0.00 | 1.19 | 1.19 | 99 | 1015.5 |
| 20260906022344 | 73 | 326 | 0.0 | 0.0 | 0.00 | 1.19 | 1.19 | 99 | 1015.5 |
| 20260906021840 | 73 | 326 | 0.0 | 0.0 | 0.00 | 1.19 | 1.19 | 99 | 1015.5 |
| 20260906021338 | 73 | 326 | 0.0 | 0.0 | 0.00 | 1.19 | 1.19 | 99 | 1015.4 |
| 20260906020833 | 73 | 326 | 0.0 | 0.0 | 0.00 | 1.19 | 1.19 | 99 | 1015.3 |
| 20260906020332 | 73 | 326 | 0.0 | 0.0 | 0.00 | 1.19 | 1.19 | 99 | 1015.2 |
| 20260906015827 | 73 | 326 | 0.0 | 0.0 | 0.00 | 1.19 | 1.19 | 99 | 1015.1 |
| 20260906015326 | 73 | 326 | 0.0 | 0.0 | 0.00 | 1.19 | 1.19 | 99 | 1015.0 |
| 20260906014821 | 73 | 326 | 0.0 | 0.0 | 0.00 | 1.19 | 1.19 | 99 | 1015.0 |
| 20260906014316 | 73 | 326 | 0.0 | 0.0 | 0.00 | 1.19 | 1.19 | 99 | 1014.9 |
| 20260906013812 | 73 | 326 | 0.0 | 0.0 | 0.00 | 1.19 | 1.19 | 99 | 1014.9 |
| 20260906013307 | 73 | 326 | 0.0 | 0.0 | 0.00 | 1.19 | 1.19 | 99 | 1014.8 |
| 20260906012803 | 73 | 326 | 0.0 | 0.0 | 0.00 | 1.19 | 1.19 | 99 | 1014.8 |
| 20260906012258 | 73 | 326 | 0.0 | 0.0 | 0.00 | 1.19 | 1.19 | 99 | 1014.5 |
| 20260906011753 | 73 | 326 | 0.0 | 0.0 | 0.00 | 1.19 | 1.19 | 99 | 1014.6 |
| 20260906011252 | 73 | 326 | 0.0 | 0.0 | 0.00 | 1.19 | 1.19 | 99 | 1014.4 |
| 20260906010748 | 73 | 326 | 0.0 | 0.0 | 0.00 | 1.19 | 1.19 | 99 | 1014.6 |
| 20260906010244 | 74 | 326 | 0.0 | 0.0 | 0.00 | 1.19 | 1.19 | 99 | 1014.5 |
| 20260906005739 | 74 | 326 | 0.0 | 0.0 | 0.00 | 1.19 | 1.19 | 99 | 1014.1 |
| 20260906005238 | 74 | 326 | 0.0 | 0.0 | 0.00 | 1.19 | 1.19 | 99 | 1014.2 |
| 20260906004737 | 74 | 326 | 0.0 | 0.0 | 0.00 | 1.19 | 1.19 | 99 | 1014.2 |
| 20260906004232 | 74 | 326 | 0.0 | 0.0 | 0.00 | 1.19 | 1.19 | 99 | 1014.3 |
| 20260906003727 | 74 | 326 | 0.0 | 0.0 | 0.00 | 1.19 | 1.19 | 99 | 1014.2 |
| 20260906003223 | 74 | 326 | 0.0 | 0.0 | 0.00 | 1.19 | 1.19 | 99 | 1014.1 |
| 20260906002723 | 74 | 326 | 0.0 | 0.0 | 0.00 | 1.19 | 1.19 | 99 | 1014.2 |
| 20260906002218 | 75 | 326 | 0.0 | 0.0 | 0.00 | 1.19 | 1.19 | 99 | 1014.1 |
| 20260906001713 | 75 | 326 | 0.0 | 0.0 | 0.00 | 1.19 | 1.19 | 99 | 1014.3 |
| 20260906001213 | 75 | 326 | 0.0 | 0.0 | 0.00 | 1.19 | 1.19 | 99 | 1014.2 |
| 20260906000709 | 75 | 326 | 0.0 | 0.0 | 0.00 | 1.19 | 1.19 | 99 | 1014.0 |
| 20260906000204 | 75 | 326 | 0.0 | 0.0 | 0.00 | 1.19 | 1.19 | 98 | 1014.4 |
| 20260905235703 | 75 | 326 | 0.0 | 0.0 | 0.00 | 1.19 | 1.19 | 98 | 1014.1 |
| 20260905235158 | 76 | 326 | 0.0 | 0.0 | 0.00 | 1.19 | 1.19 | 98 | 1014.1 |
| 20260905234653 | 76 | 326 | 0.0 | 0.0 | 0.00 | 1.19 | 1.19 | 98 | 1014.2 |
| 20260905234148 | 76 | 326 | 0.0 | 0.0 | 0.00 | 1.19 | 1.19 | 98 | 1014.0 |
| 20260905233643 | 76 | 326 | 0.0 | 0.0 | 0.00 | 1.19 | 1.19 | 98 | 1013.8 |
| 20260905233143 | 76 | 326 | 0.0 | 0.0 | 0.00 | 1.19 | 1.19 | 98 | 1014.0 |
| 20260905232638 | 77 | 326 | 0.0 | 0.0 | 0.00 | 1.19 | 1.19 | 98 | 1013.9 |
| 20260905232134 | 77 | 326 | 0.0 | 0.0 | 0.00 | 1.19 | 1.19 | 98 | 1013.8 |
| 20260905231629 | 77 | 326 | 0.0 | 0.0 | 0.00 | 1.19 | 1.19 | 97 | 1014.0 |
| 20260905231126 | 77 | 326 | 0.0 | 0.0 | 0.00 | 1.19 | 1.19 | 97 | 1014.0 |
| 20260905230621 | 77 | 326 | 0.0 | 0.0 | 0.00 | 1.19 | 1.19 | 96 | 1013.8 |
| 20260905230119 | 77 | 326 | 0.0 | 0.0 | 0.00 | 1.19 | 1.19 | 96 | 1013.8 |
| 20260905225618 | 78 | 326 | 0.0 | 0.0 | 0.00 | 1.19 | 1.19 | 96 | 1013.8 |
| 20260905225113 | 78 | 326 | 0.0 | 0.0 | 0.00 | 1.19 | 1.19 | 95 | 1013.9 |
| 20260905224608 | 78 | 326 | 0.0 | 0.0 | 0.00 | 1.19 | 1.19 | 95 | 1013.7 |
| 20260905224107 | 78 | 326 | 0.0 | 0.0 | 0.00 | 1.19 | 1.19 | 95 | 1014.1 |
| 20260905223605 | 79 | 326 | 0.0 | 0.0 | 0.00 | 1.19 | 1.19 | 94 | 1013.9 |
| 20260905223101 | 79 | 326 | 0.0 | 0.0 | 0.00 | 1.19 | 1.19 | 94 | 1013.9 |
| 20260905222600 | 79 | 326 | 0.0 | 0.0 | 0.00 | 1.19 | 1.19 | 93 | 1014.0 |
| 20260905222055 | 79 | 326 | 0.0 | 0.0 | 0.00 | 1.19 | 1.19 | 93 | 1014.0 |
| 20260905221552 | 80 | 326 | 0.0 | 0.0 | 0.00 | 1.19 | 1.19 | 92 | 1014.0 |
| 20260905221048 | 80 | 326 | 0.0 | 0.0 | 0.00 | 1.19 | 1.19 | 91 | 1014.0 |
| 20260905220543 | 80 | 318 | 0.0 | 0.0 | 0.00 | 1.19 | 1.19 | 91 | 1014.1 |
| 20260905220039 | 81 | 318 | 0.0 | 0.0 | 0.00 | 1.19 | 1.19 | 90 | 1014.1 |
| 20260905215538 | 81 | 304 | 0.0 | 0.0 | 0.00 | 1.19 | 1.19 | 87 | 1013.9 |
| 20260905215035 | 82 | 240 | 0.0 | 0.9 | 0.00 | 1.19 | 1.19 | 83 | 1013.9 |
| 20260905214530 | 82 | 310 | 0.0 | 0.9 | 0.00 | 1.19 | 1.19 | 81 | 1014.1 |
| 20260905214025 | 83 | 329 | 0.0 | 0.0 | 0.00 | 1.19 | 1.19 | 85 | 1014.1 |
| 20260905213521 | 82 | 195 | 0.9 | 0.9 | 0.00 | 1.19 | 1.19 | 80 | 1013.9 |
| 20260905213016 | 82 | 323 | 0.0 | 0.0 | 0.00 | 1.19 | 1.19 | 86 | 1014.0 |
| 20260905212511 | 82 | 323 | 0.0 | 0.0 | 0.00 | 1.19 | 1.19 | 84 | 1014.0 |
| 20260905212010 | 82 | 345 | 0.0 | 0.0 | 0.00 | 1.19 | 1.19 | 83 | 1014.0 |
| 20260905211506 | 82 | 341 | 0.0 | 0.0 | 0.00 | 1.19 | 1.19 | 83 | 1013.9 |
| 20260905211002 | 82 | 323 | 0.0 | 0.0 | 0.00 | 1.19 | 1.19 | 83 | 1013.8 |
| 20260905210457 | 82 | 302 | 0.0 | 0.0 | 0.00 | 1.19 | 1.19 | 79 | 1013.9 |
| 20260905205956 | 82 | 310 | 0.0 | 0.0 | 0.00 | 1.19 | 1.19 | 85 | 1014.0 |
| 20260905205451 | 82 | 300 | 0.0 | 0.0 | 0.00 | 1.19 | 1.19 | 86 | 1014.0 |
| 20260905204950 | 82 | 319 | 0.0 | 0.0 | 0.00 | 1.19 | 1.19 | 83 | 1014.1 |
| 20260905204446 | 82 | 326 | 0.0 | 0.0 | 0.00 | 1.19 | 1.19 | 83 | 1014.0 |
| 20260905203945 | 82 | 319 | 0.0 | 0.0 | 0.00 | 1.19 | 1.19 | 85 | 1014.0 |
| 20260905203440 | 82 | 319 | 0.0 | 0.9 | 0.00 | 1.19 | 1.19 | 82 | 1014.1 |
| 20260905202936 | 81 | 327 | 0.0 | 0.0 | 0.00 | 1.19 | 1.19 | 85 | 1014.0 |
| 20260905202431 | 81 | 347 | 0.0 | 0.9 | 0.00 | 1.19 | 1.19 | 85 | 1014.1 |
| 20260905201926 | 80 | 346 | 0.0 | 0.0 | 0.00 | 1.19 | 1.19 | 86 | 1014.3 |
| 20260905201422 | 80 | 335 | 0.0 | 0.0 | 0.00 | 1.19 | 1.19 | 84 | 1014.1 |
| 20260905200921 | 81 | 338 | 0.0 | 0.0 | 0.00 | 1.19 | 1.19 | 85 | 1014.3 |
| 20260905200417 | 81 | 335 | 0.0 | 0.0 | 0.00 | 1.19 | 1.19 | 83 | 1014.4 |
| 20260905195915 | 81 | 337 | 0.0 | 0.9 | 0.00 | 1.19 | 1.19 | 80 | 1014.5 |
| 20260905195411 | 82 | 353 | 0.0 | 0.9 | 0.00 | 1.19 | 1.19 | 76 | 1014.4 |
| 20260905194906 | 83 | 345 | 0.9 | 0.9 | 0.00 | 1.19 | 1.19 | 73 | 1014.5 |
| 20260905194405 | 83 | 317 | 0.0 | 0.9 | 0.00 | 1.19 | 1.19 | 76 | 1014.5 |
| 20260905193900 | 82 | 195 | 0.9 | 3.5 | 0.00 | 1.19 | 1.19 | 72 | 1014.7 |
| 20260905193355 | 83 | 220 | 1.7 | 1.7 | 0.00 | 1.19 | 1.19 | 75 | 1014.8 |
| 20260905192850 | 82 | 358 | 0.0 | 0.0 | 0.00 | 1.19 | 1.19 | 78 | 1014.7 |
| 20260905192346 | 82 | 11 | 0.0 | 0.9 | 0.00 | 1.19 | 1.19 | 78 | 1014.9 |
| 20260905191845 | 82 | 333 | 0.0 | 0.0 | 0.00 | 1.19 | 1.19 | 76 | 1014.9 |
| 20260905191345 | 83 | 350 | 0.0 | 0.0 | 0.00 | 1.19 | 1.19 | 77 | 1014.8 |
| 20260905190843 | 82 | 316 | 0.9 | 1.7 | 0.00 | 1.19 | 1.19 | 77 | 1014.9 |
| 20260905190337 | 82 | 252 | 0.0 | 1.7 | 0.00 | 1.19 | 1.19 | 74 | 1014.8 |
| 20260905185835 | 82 | 187 | 0.9 | 2.6 | 0.00 | 1.19 | 1.19 | 76 | 1015.1 |
| 20260905185331 | 81 | 340 | 0.0 | 0.9 | 0.00 | 1.19 | 1.19 | 75 | 1015.2 |
| 20260905184830 | 81 | 157 | 0.9 | 1.7 | 0.00 | 1.19 | 1.19 | 75 | 1015.2 |
| 20260905184329 | 81 | 296 | 0.0 | 0.0 | 0.00 | 1.19 | 1.19 | 75 | 1015.2 |
| 20260905183827 | 81 | 315 | 0.0 | 0.0 | 0.00 | 1.19 | 1.19 | 77 | 1015.1 |
| 20260905183323 | 82 | 358 | 0.0 | 0.9 | 0.00 | 1.19 | 1.19 | 75 | 1015.1 |
| 20260905182817 | 82 | 232 | 0.0 | 1.7 | 0.00 | 1.19 | 1.19 | 74 | 1015.4 |
| 20260905182312 | 82 | 245 | 1.7 | 2.6 | 0.00 | 1.19 | 1.19 | 74 | 1015.4 |
| 20260905181807 | 83 | 334 | 0.0 | 0.9 | 0.00 | 1.19 | 1.19 | 74 | 1015.4 |
| 20260905181306 | 82 | 0 | 0.9 | 0.9 | 0.00 | 1.19 | 1.19 | 78 | 1015.4 |
| 20260905180801 | 82 | 335 | 0.0 | 0.0 | 0.00 | 1.19 | 1.19 | 76 | 1015.4 |
| 20260905180255 | 82 | 194 | 1.7 | 2.6 | 0.00 | 1.19 | 1.19 | 76 | 1015.4 |
| 20260905175750 | 82 | 212 | 1.7 | 1.7 | 0.00 | 1.19 | 1.19 | 74 | 1015.7 |
| 20260905175245 | 81 | 201 | 0.9 | 1.7 | 0.00 | 1.19 | 1.19 | 77 | 1015.6 |
| 20260905174739 | 82 | 319 | 0.0 | 0.0 | 0.00 | 1.19 | 1.19 | 75 | 1015.8 |
| 20260905174230 | 83 | 306 | 0.0 | 1.7 | 0.00 | 1.19 | 1.19 | 71 | 1015.7 |
| 20260905173726 | 82 | 289 | 0.0 | 0.0 | 0.00 | 1.19 | 1.19 | 75 | 1015.7 |
| 20260905173221 | 82 | 288 | 0.0 | 0.9 | 0.00 | 1.19 | 1.19 | 75 | 1015.7 |
| 20260905172715 | 80 | 15 | 0.0 | 0.9 | 0.00 | 1.19 | 1.19 | 80 | 1015.8 |
| 20260905172209 | 82 | 28 | 0.0 | 1.7 | 0.00 | 1.19 | 1.19 | 78 | 1015.8 |
| 20260905171705 | 82 | 344 | 0.0 | 0.9 | 0.00 | 1.19 | 1.19 | 78 | 1015.7 |
| 20260905171201 | 81 | 341 | 0.0 | 1.7 | 0.00 | 1.19 | 1.19 | 77 | 1016.1 |
| 20260905170658 | 81 | 352 | 0.0 | 0.0 | 0.00 | 1.19 | 1.19 | 80 | 1015.9 |
| 20260905170157 | 81 | 200 | 1.7 | 2.6 | 0.00 | 1.19 | 1.19 | 77 | 1016.0 |
| 20260905165652 | 81 | 303 | 0.0 | 1.7 | 0.00 | 1.19 | 1.19 | 80 | 1016.0 |
| 20260905165147 | 81 | 338 | 0.9 | 0.9 | 0.00 | 1.19 | 1.19 | 79 | 1016.2 |
| 20260905164642 | 80 | 331 | 0.0 | 0.9 | 0.00 | 1.19 | 1.19 | 80 | 1016.2 |
| 20260905164141 | 81 | 212 | 1.7 | 3.5 | 0.00 | 1.19 | 1.19 | 80 | 1016.0 |
| 20260905163638 | 79 | 284 | 0.0 | 2.6 | 0.00 | 1.19 | 1.19 | 84 | 1016.1 |
| 20260905163134 | 80 | 325 | 0.0 | 0.0 | 0.00 | 1.19 | 1.19 | 83 | 1016.2 |
| 20260905162630 | 80 | 252 | 0.0 | 2.6 | 0.00 | 1.19 | 1.19 | 82 | 1016.1 |
| 20260905162129 | 80 | 179 | 1.7 | 2.6 | 0.00 | 1.19 | 1.19 | 78 | 1016.2 |
| 20260905161629 | 81 | 222 | 2.6 | 5.2 | 0.00 | 1.19 | 1.19 | 80 | 1016.0 |
| 20260905161126 | 80 | 200 | 1.7 | 2.6 | 0.00 | 1.19 | 1.19 | 83 | 1016.1 |
| 20260905160621 | 79 | 295 | 0.0 | 0.9 | 0.00 | 1.19 | 1.19 | 89 | 1016.3 |
| 20260905160115 | 78 | 239 | 0.9 | 1.7 | 0.00 | 1.19 | 1.19 | 86 | 1016.0 |
| 20260905155609 | 78 | 190 | 1.7 | 1.7 | 0.00 | 1.19 | 1.19 | 88 | 1016.1 |
| 20260905155108 | 77 | 328 | 0.0 | 0.9 | 0.00 | 1.19 | 1.19 | 92 | 1016.2 |
| 20260905154608 | 77 | 338 | 0.0 | 0.9 | 0.00 | 1.19 | 1.19 | 92 | 1016.4 |
| 20260905154104 | 77 | 290 | 0.0 | 1.7 | 0.00 | 1.19 | 1.19 | 87 | 1016.0 |
| 20260905153600 | 77 | 246 | 0.9 | 1.7 | 0.00 | 1.19 | 1.19 | 90 | 1015.8 |
| 20260905153054 | 78 | 218 | 0.9 | 1.7 | 0.00 | 1.19 | 1.19 | 88 | 1016.1 |
| 20260905152549 | 76 | 205 | 1.7 | 2.6 | 0.00 | 1.19 | 1.19 | 90 | 1016.1 |
| 20260905152044 | 76 | 211 | 3.5 | 3.5 | 0.00 | 1.19 | 1.19 | 90 | 1016.0 |
| 20260905151539 | 75 | 66 | 0.9 | 2.6 | 0.00 | 1.19 | 1.19 | 94 | 1015.9 |
| 20260905151034 | 75 | 343 | 0.0 | 0.0 | 0.00 | 1.19 | 1.19 | 96 | 1016.1 |
| 20260905150530 | 74 | 248 | 0.0 | 1.7 | 0.00 | 1.19 | 1.19 | 95 | 1015.9 |
| 20260905150027 | 74 | 164 | 1.7 | 3.5 | 0.00 | 1.19 | 1.19 | 96 | 1016.0 |
| 20260905145520 | 73 | 228 | 0.9 | 2.6 | 0.00 | 1.19 | 1.19 | 98 | 1016.0 |
| 20260905145015 | 73 | 223 | 0.9 | 1.7 | 0.00 | 1.19 | 1.19 | 99 | 1016.0 |
| 20260905144510 | 73 | 237 | 0.0 | 1.7 | 0.00 | 1.19 | 1.19 | 99 | 1015.9 |
| 20260905144009 | 72 | 222 | 0.9 | 0.9 | 0.00 | 1.19 | 1.19 | 99 | 1016.1 |
| 20260905143508 | 72 | 236 | 0.9 | 1.7 | 0.00 | 1.19 | 1.19 | 99 | 1015.7 |
| 20260905143003 | 72 | 340 | 0.0 | 0.0 | 0.00 | 1.19 | 1.19 | 99 | 1015.8 |
| 20260905142502 | 71 | 341 | 0.0 | 0.0 | 0.00 | 1.19 | 1.19 | 99 | 1015.6 |